Location: Henham
(51.9333°N, 0.2500°E)
Time: 07:21:27
(UTC+00:00)

SL-27 R/B - Pass Details

Date: 23 October 2019
Orbit: 421 x 472 km, 74.7° (Epoch: 17 November)

Event Time Altitude Azimuth Distance (km) Brightness Sun altitude
Rises 18:40:14 0° 340° (NNW) 2,391 6.4 -17.8°
Reaches altitude 10° 18:42:21 10° 346° (NNW) 1,520 5.3 -18.1°
Enters shadow 18:45:05 43° 31° (NNE) 607 2.8 -18.5°
